Location: Selby
(38.0566°N, 122.2439°W)
Time: 05:42:13
(UTC+00:00)

Envisat - Pass Details

Date: 22 May 2024
Orbit: 762 x 764 km, 98.3° (Epoch: 13 June)

Event Time Altitude Azimuth Distance (km) Brightness Sun altitude
Rises 12:12:02 0° 2° (N) 3,233 6.8 -7.7°
Reaches altitude 10° 12:14:31 10° 353° (N) 2,303 5.9 -7.3°
Maximum altitude 12:19:01 33° 291° (WNW) 1,263 3.9 -6.6°
Drops below altitude 10° 12:23:30 10° 228° (SW) 2,290 4.8 -5.8°
Enters shadow 12:24:31 - 223° (SW) 2,659 5.2 -5.7°
